Liberal, KS

5:16 AM CST on December 13, 2017 (GMT -0600)
Liberal Municipal

Weather History for KLBL - March, 2014

Change the Weather History Date:

Tuesday, March 18, 2014

  Actual Average Record
Temperature  
Mean Temperature 46 °F -  
Max Temperature 59 °F 61 °F 85 °F (1978)
Min Temperature 33 °F 33 °F 8 °F (1965)
Degree Days  
Heating Degree Days 19    
Moisture  
Dew Point 21 °F    
Average Humidity 38    
Maximum Humidity 65    
Minimum Humidity 23    
Precipitation  
Precipitation 0.00 in - - ()
Sea Level Pressure  
Sea Level Pressure 29.62 in    
Wind  
Wind Speed 20 mph (NW)    
Max Wind Speed 44 mph    
Max Gust Speed 54 mph    
Visibility 8 miles    
Events      
Averages and records for this station are not official NWS values.
T = Trace of Precipitation, MM = Missing Value Source: NWS Daily Summary

Daily Weather History Graph

Daily Weather History Graph

Search for Another Location

Airport or City:

Trip Planner

Search our weather history database for the weather conditions in past years. The results will help you decide how hot, cold, wet, or windy it might be!

Date:

Astronomy

Mar. 18, 2014 Rise Set
Actual Time 7:50 AM CDT 7:53 PM CDT
Civil Twilight 7:24 AM CDT 8:19 PM CDT
Nautical Twilight 6:54 AM CDT 8:50 PM CDT
Astronomical Twilight 6:23 AM CDT 9:20 PM CDT
Moon 10:09 PM CDT (3/18) 8:43 AM CDT (3/18)
Length of Visible Light 12h 55m
Length of Day
12h 03m
Waning Gibbous, 96% of the Moon is Illuminated
Mar 18
Waning Gibbous
Mar 23
Last Quarter
Mar 30
New
Apr 7
First Quarter
Apr 15
Full

Hourly Weather History & Observations

Time (CDT) Temp. Windchill Dew Point Humidity Pressure Visibility Wind Dir Wind Speed Gust Speed Precip Events Conditions
12:15 AM 55.4 °F - 19.4 °F 25% 29.33 in 10.0 mi South 15.0 mph - N/A   Clear
12:35 AM 53.6 °F - 19.4 °F 26% 29.32 in 10.0 mi South 13.8 mph - N/A   Clear
12:55 AM 53.6 °F - 19.4 °F 26% 29.32 in 10.0 mi South 11.5 mph - N/A   Clear
1:15 AM 51.8 °F - 19.4 °F 28% 29.31 in 10.0 mi South 10.4 mph - N/A   Clear
1:35 AM 51.8 °F - 19.4 °F 28% 29.31 in 10.0 mi SSW 10.4 mph - N/A   Clear
1:55 AM 51.8 °F - 19.4 °F 28% 29.32 in 10.0 mi SSW 4.6 mph - N/A   Clear
2:15 AM 51.8 °F - 19.4 °F 28% 29.32 in 10.0 mi WSW 5.8 mph - N/A   Clear
2:35 AM 50.0 °F - 19.4 °F 30% 29.33 in 10.0 mi West 6.9 mph - N/A   Clear
2:55 AM 48.2 °F - 17.6 °F 30% 29.34 in 10.0 mi NW 10.4 mph - N/A   Clear
3:15 AM 48.2 °F - 19.4 °F 32% 29.35 in 10.0 mi NNW 13.8 mph - N/A   Clear
3:35 AM 48.2 °F - 21.2 °F 34% 29.37 in 10.0 mi NNW 13.8 mph - N/A   Clear
3:55 AM 48.2 °F - 21.2 °F 34% 29.36 in 10.0 mi NNW 13.8 mph - N/A   Clear
4:15 AM 48.2 °F - 24.8 °F 40% 29.37 in 10.0 mi NNW 15.0 mph 21.9 mph N/A   Clear
4:35 AM 46.4 °F 39.0 °F 23.0 °F 40% 29.37 in 10.0 mi NNW 19.6 mph - N/A   Clear
4:55 AM 46.4 °F 39.5 °F 19.4 °F 34% 29.37 in 10.0 mi NW 17.3 mph - N/A   Clear
5:15 AM 44.6 °F 37.8 °F 19.4 °F 37% 29.38 in 10.0 mi NW 15.0 mph - N/A   Clear
5:35 AM 42.8 °F 36.2 °F 17.6 °F 36% 29.39 in 10.0 mi NW 12.7 mph - N/A   Clear
5:55 AM 42.8 °F 36.2 °F 17.6 °F 36% 29.40 in 10.0 mi NW 12.7 mph - N/A   Clear
6:15 AM 42.8 °F 36.6 °F 17.6 °F 36% 29.40 in 10.0 mi NW 11.5 mph - N/A   Clear
6:35 AM 41.0 °F 34.3 °F 17.6 °F 39% 29.42 in 10.0 mi WNW 11.5 mph - N/A   Clear
6:55 AM 39.2 °F 32.0 °F 15.8 °F 39% 29.43 in 10.0 mi WNW 11.5 mph - N/A   Clear
7:15 AM 37.4 °F 30.8 °F 17.6 °F 45% 29.42 in 10.0 mi NW 9.2 mph - N/A   Clear
7:35 AM 39.2 °F 32.0 °F 17.6 °F 42% 29.42 in 10.0 mi WNW 11.5 mph - N/A   Clear
7:55 AM 37.4 °F 28.9 °F 15.8 °F 41% 29.44 in 10.0 mi WNW 13.8 mph - N/A   Clear
8:15 AM 37.4 °F 29.3 °F 17.6 °F 45% 29.45 in 10.0 mi WNW 12.7 mph - N/A   Clear
8:35 AM 41.0 °F 33.9 °F 19.4 °F 42% 29.45 in 10.0 mi NW 12.7 mph - N/A   Clear
8:55 AM 44.6 °F 37.2 °F 19.4 °F 37% 29.47 in 10.0 mi NNW 17.3 mph 23.0 mph N/A   Clear
9:15 AM 46.4 °F 39.2 °F 17.6 °F 32% 29.49 in 10.0 mi NNW 18.4 mph 24.2 mph N/A   Clear
9:35 AM 48.2 °F - 17.6 °F 30% 29.48 in 10.0 mi NNW 24.2 mph 34.5 mph N/A   Clear
9:55 AM 50.0 °F - 19.4 °F 30% 29.50 in 10.0 mi NNW 25.3 mph 32.2 mph N/A   Clear
10:15 AM 51.8 °F - 17.6 °F 26% 29.52 in 10.0 mi NNW 31.1 mph 38.0 mph N/A   Clear
10:35 AM 51.8 °F - 19.4 °F 28% 29.52 in 10.0 mi NNW 26.5 mph 38.0 mph N/A   Clear
10:55 AM 53.6 °F - 19.4 °F 26% 29.54 in 10.0 mi NW 32.2 mph 38.0 mph N/A   Clear
11:15 AM 55.4 °F - 21.2 °F 26% 29.53 in 10.0 mi NNW 31.1 mph 38.0 mph N/A   Clear
11:35 AM 55.4 °F - 19.4 °F 25% 29.55 in 8.0 mi NW 33.4 mph 40.3 mph N/A   Clear
11:55 AM 55.4 °F - 21.2 °F 26% 29.56 in 6.0 mi NW 31.1 mph 42.6 mph N/A   Clear
12:15 PM 55.4 °F - 21.2 °F 26% 29.57 in 5.0 mi NNW 31.1 mph 38.0 mph N/A   Clear
12:35 PM 57.2 °F - 21.2 °F 25% 29.58 in 5.0 mi NNW 34.5 mph 41.4 mph N/A   Clear
12:55 PM 57.2 °F - 21.2 °F 25% 29.59 in 5.0 mi NW 29.9 mph 40.3 mph N/A   Clear
1:15 PM 59.0 °F - 23.0 °F 25% 29.60 in 4.0 mi NW 33.4 mph 40.3 mph N/A   Clear
1:35 PM 57.2 °F - 23.0 °F 27% 29.61 in 5.0 mi NW 34.5 mph 44.9 mph N/A   Clear
1:55 PM 57.2 °F - 21.2 °F 25% 29.61 in 6.0 mi NW 27.6 mph 42.6 mph N/A   Clear
2:15 PM 59.0 °F - 23.0 °F 25% 29.62 in 7.0 mi WNW 32.2 mph 40.3 mph N/A   Clear
2:35 PM 59.0 °F - 21.2 °F 23% 29.63 in 7.0 mi NW 32.2 mph 39.1 mph N/A   Clear
2:55 PM 59.0 °F - 23.0 °F 25% 29.63 in 9.0 mi NW 32.2 mph 36.8 mph N/A   Clear
3:15 PM 57.2 °F - 24.8 °F 29% 29.66 in 8.0 mi NNW 40.3 mph 48.3 mph N/A   Partly Cloudy
3:35 PM 53.6 °F - 24.8 °F 33% 29.69 in 3.0 mi NNW 39.1 mph 48.3 mph N/A   Clear
3:55 PM 53.6 °F - 24.8 °F 33% 29.71 in 4.0 mi NW 34.5 mph 47.2 mph N/A   Clear
4:15 PM 53.6 °F - 24.8 °F 33% 29.73 in 5.0 mi NW 38.0 mph 48.3 mph N/A   Partly Cloudy
4:35 PM 51.8 °F - 21.2 °F 30% 29.75 in 6.0 mi NW 38.0 mph 46.0 mph N/A   Scattered Clouds
4:55 PM 48.2 °F - 21.2 °F 34% 29.76 in 7.0 mi NNW 34.5 mph 46.0 mph N/A   Scattered Clouds
5:15 PM 48.2 °F - 23.0 °F 37% 29.78 in 7.0 mi NW 32.2 mph 48.3 mph N/A   Mostly Cloudy
5:35 PM 48.2 °F - 23.0 °F 37% 29.80 in 5.0 mi NW 43.7 mph 51.8 mph N/A   Scattered Clouds
5:55 PM 44.6 °F 33.6 °F 21.2 °F 39% 29.83 in 7.0 mi NNW 38.0 mph 50.6 mph N/A   Mostly Cloudy
6:15 PM 42.8 °F 30.5 °F 23.0 °F 46% 29.84 in 5.0 mi NNW 42.6 mph 48.3 mph N/A   Overcast
6:35 PM 42.8 °F 31.3 °F 23.0 °F 46% 29.87 in 4.0 mi NNW 36.8 mph 52.9 mph N/A   Overcast
6:55 PM 42.8 °F 31.4 °F 23.0 °F 46% 29.90 in 5.0 mi NNW 35.7 mph 54.1 mph N/A   Overcast
7:15 PM 41.0 °F 28.2 °F 23.0 °F 49% 29.90 in 4.0 mi NNW 41.4 mph 49.5 mph N/A   Overcast
7:35 PM 39.2 °F 26.5 °F 24.8 °F 56% 29.93 in 8.0 mi NNW 35.7 mph 42.6 mph N/A   Overcast
7:55 PM 39.2 °F 26.3 °F 23.0 °F 52% 29.94 in 4.0 mi NNW 36.8 mph 46.0 mph N/A   Mostly Cloudy
8:15 PM 37.4 °F 24.4 °F 24.8 °F 60% 29.96 in 10.0 mi NNW 33.4 mph 41.4 mph N/A   Clear
8:35 PM 37.4 °F 25.2 °F 23.0 °F 56% 29.98 in 10.0 mi NNW 28.8 mph 39.1 mph N/A   Clear
8:55 PM 37.4 °F 25.4 °F 23.0 °F 56% 30.01 in 10.0 mi NNW 27.6 mph 36.8 mph N/A   Clear
9:15 PM 37.4 °F 26.1 °F 23.0 °F 56% 30.02 in 10.0 mi NNW 24.2 mph 32.2 mph N/A   Clear
9:35 PM 37.4 °F 26.4 °F 23.0 °F 56% 30.03 in 10.0 mi NNW 23.0 mph 29.9 mph N/A   Clear
9:55 PM 37.4 °F 26.1 °F 23.0 °F 56% 30.03 in 10.0 mi NNW 24.2 mph - N/A   Clear
10:15 PM 37.4 °F 27.2 °F 21.2 °F 52% 30.03 in 10.0 mi NNW 19.6 mph - N/A   Clear
10:35 PM 35.6 °F 25.2 °F 21.2 °F 56% 30.04 in 10.0 mi NNW 18.4 mph - N/A   Clear
10:55 PM 35.6 °F 25.5 °F 21.2 °F 56% 30.05 in 10.0 mi NNW 17.3 mph 21.9 mph N/A   Clear
11:15 PM 33.8 °F 23.5 °F 21.2 °F 60% 30.05 in 10.0 mi NW 16.1 mph - N/A   Clear
11:35 PM 35.6 °F 25.9 °F 23.0 °F 60% 30.06 in 10.0 mi NW 16.1 mph - N/A   Clear
11:55 PM 33.8 °F 24.8 °F 23.0 °F 65% 30.07 in 10.0 mi NW 12.7 mph - N/A   Clear